Weather History for Bradford, PA

Change the Weather History Date:

Thursday, May 17, 2012

  Actual Average Record
Temperature  
Mean Temperature 46 °F -  
Max Temperature 66 °F 65 °F 85 °F (1962)
Min Temperature 28 °F 42 °F 24 °F (1983)
Degree Days  
Heating Degree Days 19    
Moisture  
Dew Point 30 °F    
Average Humidity 54    
Maximum Humidity 89    
Minimum Humidity 24    
Precipitation  
Precipitation 0.00 in - - ()
Sea Level Pressure  
Sea Level Pressure 30.15 in    
Wind  
Wind Speed 3 mph (NNW)    
Max Wind Speed 13 mph    
Max Gust Speed 18 mph    
Visibility 10 miles    
Events      
Averages and records for this station are not official NWS values.
T = Trace of Precipitation, MM = Missing Value Source: NWS Daily Summary

Daily Weather History Graph

Daily Weather History Graph

Search for Another Location

Airport:

Trip Planner

Search our weather history database for the weather conditions in past years. The results will help you decide how hot, cold, wet, or windy it might be!

Date:

Astronomy

May. 17, 2012 Rise Set
Actual Time 5:52 AM EDT 8:30 PM EDT
Civil Twilight 5:20 AM EDT 9:02 PM EDT
Nautical Twilight 4:40 AM EDT 9:42 PM EDT
Astronomical Twilight 3:54 AM EDT 10:28 PM EDT
Moon 3:52 AM EDT 5:39 PM EDT
Length of Visible Light 15h 42m
Length of Day
14h 38m
Waning Crescent, 10% of the Moon is Illuminated
May 17
Waning Crescent
May 20
New
May 28
First Quarter
Jun 4
Full
Jun 11
Last Quarter

Hourly Weather History & Observations

Time (EDT) Temp. Windchill Dew Point Humidity Pressure Visibility Wind Dir Wind Speed Gust Speed Precip Events Conditions
12:53 AM 36.0 °F - 32.0 °F 86% 30.09 in 10.0 mi Calm Calm - N/A   Clear
1:53 AM 35.1 °F - 30.9 °F 85% 30.10 in 10.0 mi Calm Calm - N/A   Clear
2:53 AM 30.9 °F - 28.0 °F 89% 30.10 in 10.0 mi Calm Calm - N/A   Clear
3:53 AM 32.0 °F - 28.0 °F 85% 30.11 in 10.0 mi Calm Calm - N/A   Clear
4:53 AM 28.9 °F - 26.1 °F 89% 30.12 in 10.0 mi Calm Calm - N/A   Clear
5:53 AM 28.9 °F - 25.0 °F 85% 30.13 in 10.0 mi Calm Calm - N/A   Clear
6:53 AM 32.0 °F 28.7 °F 28.9 °F 88% 30.16 in 10.0 mi WNW 3.5 mph - N/A   Clear
7:53 AM 43.0 °F 39.5 °F 34.0 °F 71% 30.17 in 10.0 mi NNW 5.8 mph - N/A   Clear
8:53 AM 46.0 °F 42.5 °F 33.1 °F 61% 30.19 in 10.0 mi North 6.9 mph - N/A   Clear
9:53 AM 51.1 °F - 27.0 °F 39% 30.19 in 10.0 mi NNW 11.5 mph - N/A   Clear
10:53 AM 54.0 °F - 28.0 °F 37% 30.19 in 10.0 mi NNW 12.7 mph - N/A   Clear
11:53 AM 57.0 °F - 27.0 °F 32% 30.19 in 10.0 mi Variable 6.9 mph 18.4 mph N/A   Clear
12:53 PM 57.9 °F - 27.0 °F 31% 30.18 in 10.0 mi West 5.8 mph - N/A   Clear
1:53 PM 61.0 °F - 28.0 °F 29% 30.17 in 10.0 mi NNW 9.2 mph - N/A   Clear
2:53 PM 64.0 °F - 28.9 °F 27% 30.16 in 10.0 mi WNW 11.5 mph - N/A   Clear
3:53 PM 64.9 °F - 28.0 °F 25% 30.14 in 10.0 mi Variable 4.6 mph - N/A   Clear
4:53 PM 64.9 °F - 28.0 °F 25% 30.14 in 10.0 mi Variable 4.6 mph - N/A   Clear
5:53 PM 64.9 °F - 27.0 °F 24% 30.15 in 10.0 mi NE 4.6 mph - N/A   Clear
6:53 PM 64.9 °F - 30.0 °F 27% 30.15 in 10.0 mi North 4.6 mph - N/A   Clear
7:53 PM 61.0 °F - 33.1 °F 35% 30.15 in 10.0 mi NE 3.5 mph - N/A   Clear
8:53 PM 52.0 °F - 36.0 °F 54% 30.17 in 10.0 mi NNW 3.5 mph - N/A   Clear
9:53 PM 50.0 °F - 33.1 °F 52% 30.17 in 10.0 mi North 4.6 mph - N/A   Clear
10:53 PM 46.9 °F - 36.0 °F 66% 30.18 in 10.0 mi Calm Calm - N/A   Clear
11:53 PM 46.0 °F - 34.0 °F 63% 30.17 in 10.0 mi Calm Calm - N/A   Clear